Weather History for Cook, MN

Change the Weather History Date:

Friday, February 28, 2014

  Actual Average Record
Temperature  
Mean Temperature -10 °F -  
Max Temperature 5 °F 25 °F 53 °F (2004)
Min Temperature -25 °F 5 °F -27 °F (2009)
Degree Days  
Heating Degree Days 75    
Moisture  
Dew Point -17 °F    
Average Humidity 64    
Maximum Humidity 84    
Minimum Humidity 42    
Precipitation  
Precipitation 0.00 in - - ()
Sea Level Pressure  
Sea Level Pressure 29.89 in    
Wind  
Wind Speed 4 mph (WSW)    
Max Wind Speed 13 mph    
Max Gust Speed 18 mph    
Visibility 9 miles    
Events Snow    
Averages and records for this station are not official NWS values.
T = Trace of Precipitation, MM = Missing Value Source: NWS Daily Summary

Daily Weather History Graph

Daily Weather History Graph

Search for Another Location

Airport:

Trip Planner

Search our weather history database for the weather conditions in past years. The results will help you decide how hot, cold, wet, or windy it might be!

Date:

Astronomy

Feb. 28, 2014 Rise Set
Actual Time 6:53 AM CST 5:53 PM CST
Civil Twilight 6:22 AM CST 6:25 PM CST
Nautical Twilight 5:46 AM CST 7:00 PM CST
Astronomical Twilight 5:10 AM CST 7:36 PM CST
Moon 6:09 AM CST (2/28) 5:32 PM CST (2/28)
Length of Visible Light 12h 02m
Length of Day
11h 00m
Waning Crescent, 1% of the Moon is Illuminated
Feb 28
Waning Crescent
Mar 1
New
Mar 8
First Quarter
Mar 16
Full
Mar 23
Last Quarter

Hourly Weather History & Observations

Time (CST) Temp. Windchill Dew Point Humidity Pressure Visibility Wind Dir Wind Speed Gust Speed Precip Events Conditions
12:15 AM -25.6 °F - -34.6 °F 63% 29.95 in 10.0 mi Calm Calm - N/A   Clear
12:35 AM -25.6 °F -37.1 °F -32.8 °F 69% 29.94 in 10.0 mi SSE 3.5 mph - N/A   Clear
12:55 AM -25.6 °F -39.8 °F -34.6 °F 63% 29.93 in 10.0 mi SE 4.6 mph - N/A   Clear
1:15 AM -23.8 °F -35.0 °F -31.0 °F 69% 29.94 in 10.0 mi SSE 3.5 mph - N/A   Scattered Clouds
1:35 AM -23.8 °F - -32.8 °F 63% 29.94 in 10.0 mi Calm Calm - N/A   Scattered Clouds
1:54 AM -23.8 °F - -32.8 °F 63% 29.93 in 10.0 mi Calm Calm - N/A   Scattered Clouds
2:15 AM -22.0 °F - -29.2 °F 69% 29.92 in 10.0 mi Calm Calm - N/A   Scattered Clouds
2:35 AM -20.2 °F - -29.2 °F 63% 29.91 in 10.0 mi Calm Calm - N/A   Clear
2:54 AM -20.2 °F - -29.2 °F 63% 29.90 in 10.0 mi Calm Calm - N/A   Clear
3:15 AM -18.4 °F - -27.4 °F 63% 29.90 in 10.0 mi Calm Calm - N/A   Scattered Clouds
3:35 AM -18.4 °F - -27.4 °F 63% 29.89 in 10.0 mi Calm Calm - N/A   Scattered Clouds
3:54 AM -16.6 °F - -25.6 °F 64% 29.90 in 10.0 mi Calm Calm - N/A   Clear
4:15 AM -16.6 °F - -25.6 °F 64% 29.89 in 10.0 mi Calm Calm - N/A   Clear
4:35 AM -16.6 °F -29.3 °F -25.6 °F 64% 29.89 in 10.0 mi SE 4.6 mph - N/A   Clear
4:54 AM -13.0 °F -27.0 °F -23.8 °F 59% 29.88 in 10.0 mi SE 5.8 mph - N/A   Clear
5:15 AM -11.2 °F -20.6 °F -23.8 °F 54% 29.87 in 10.0 mi SE 3.5 mph - N/A   Scattered Clouds
5:35 AM -13.0 °F - -23.8 °F 59% 29.87 in 10.0 mi Calm Calm - N/A   Scattered Clouds
5:54 AM -14.8 °F - -25.6 °F 58% 29.87 in 10.0 mi Calm Calm - N/A   Mostly Cloudy
6:15 AM -13.0 °F - -23.8 °F 59% 29.87 in 10.0 mi Calm Calm - N/A   Overcast
6:35 AM -11.2 °F -20.6 °F -23.8 °F 54% 29.85 in 10.0 mi East 3.5 mph - N/A   Overcast
6:54 AM -11.2 °F - -22.0 °F 59% 29.86 in 10.0 mi Calm Calm - N/A   Overcast
7:15 AM -11.2 °F - -20.2 °F 64% 29.86 in 10.0 mi Calm Calm - N/A   Overcast
7:35 AM -9.4 °F - -20.2 °F 59% 29.86 in 10.0 mi Calm Calm - N/A   Overcast
7:54 AM -7.6 °F -22.1 °F -20.2 °F 54% 29.84 in 10.0 mi SE 6.9 mph - N/A   Overcast
8:15 AM -7.6 °F -23.4 °F -22.0 °F 50% 29.83 in 10.0 mi SE 8.1 mph - N/A   Overcast
8:35 AM -5.8 °F -22.4 °F -20.2 °F 50% 29.83 in 10.0 mi SSE 9.2 mph - N/A   Overcast
8:55 AM -5.8 °F -21.2 °F -20.2 °F 50% 29.82 in 7.0 mi SSE 8.1 mph - N/A Snow Light Snow
9:15 AM -5.8 °F -21.2 °F -18.4 °F 55% 29.81 in 10.0 mi SSE 8.1 mph - N/A   Overcast
9:35 AM -4.0 °F -20.2 °F -20.2 °F 46% 29.80 in 10.0 mi SSE 9.2 mph 17.3 mph N/A   Overcast
9:55 AM -2.2 °F -18.9 °F -20.2 °F 42% 29.80 in 10.0 mi SSE 10.4 mph - N/A   Overcast
10:15 AM -2.2 °F -18.9 °F -16.6 °F 50% 29.80 in 3.0 mi SSE 10.4 mph 18.4 mph N/A Snow Light Snow
10:35 AM -2.2 °F -20.7 °F -13.0 °F 60% 29.80 in 2.5 mi SSE 12.7 mph 17.3 mph N/A Snow Light Snow
10:55 AM -2.2 °F -18.9 °F -13.0 °F 60% 29.79 in 10.0 mi SSE 10.4 mph 17.3 mph N/A   Overcast
11:15 AM -2.2 °F -14.2 °F -13.0 °F 60% 29.78 in 10.0 mi SSE 5.8 mph - N/A   Overcast
11:35 AM -0.4 °F -8.3 °F -14.8 °F 51% 29.79 in 10.0 mi South 3.5 mph - N/A   Mostly Cloudy
11:55 AM 1.4 °F -12.5 °F -16.6 °F 43% 29.79 in 10.0 mi South 8.1 mph - N/A   Scattered Clouds
12:15 PM 1.4 °F -8.3 °F -14.8 °F 47% 29.79 in 10.0 mi SSW 4.6 mph - N/A   Mostly Cloudy
12:35 PM 3.2 °F -12.2 °F -11.2 °F 51% 29.79 in 7.0 mi WSW 10.4 mph - N/A Snow Light Snow
12:55 PM 1.4 °F -12.5 °F -11.2 °F 56% 29.79 in 4.0 mi SW 8.1 mph - N/A Snow Light Snow
1:15 PM 1.4 °F -8.3 °F -9.4 °F 61% 29.79 in 3.0 mi SW 4.6 mph - N/A Snow Light Snow
1:35 PM 3.2 °F -9.1 °F -7.6 °F 61% 29.79 in 3.0 mi SW 6.9 mph - N/A Snow Light Snow
1:55 PM 3.2 °F -10.3 °F -5.8 °F 66% 29.80 in 3.0 mi WSW 8.1 mph - N/A Snow Light Snow
2:15 PM 3.2 °F -9.1 °F -5.8 °F 66% 29.81 in 5.0 mi WSW 6.9 mph - N/A   Haze
2:35 PM 3.2 °F -11.3 °F -5.8 °F 66% 29.81 in 10.0 mi West 9.2 mph - N/A   Overcast
2:55 PM 3.2 °F -12.2 °F -5.8 °F 66% 29.82 in 10.0 mi West 10.4 mph - N/A   Overcast
3:15 PM 3.2 °F -7.8 °F -5.8 °F 66% 29.83 in 7.0 mi WNW 5.8 mph - N/A   Overcast
3:34 PM 5.0 °F -8.1 °F -5.8 °F 61% 29.84 in 10.0 mi West 8.1 mph - N/A   Mostly Cloudy
3:55 PM 3.2 °F -13.1 °F -5.8 °F 66% 29.85 in 10.0 mi WNW 11.5 mph - N/A   Scattered Clouds
4:15 PM 5.0 °F -8.1 °F -7.6 °F 56% 29.85 in 10.0 mi WNW 8.1 mph - N/A   Scattered Clouds
4:34 PM 5.0 °F -6.9 °F -7.6 °F 56% 29.87 in 10.0 mi WNW 6.9 mph - N/A   Clear
4:55 PM 3.2 °F -9.1 °F -7.6 °F 61% 29.88 in 10.0 mi West 6.9 mph - N/A   Clear
5:15 PM 3.2 °F -11.3 °F -7.6 °F 61% 29.88 in 10.0 mi West 9.2 mph - N/A   Clear
5:34 PM 3.2 °F -13.1 °F -7.6 °F 61% 29.90 in 10.0 mi WNW 11.5 mph - N/A   Mostly Cloudy
5:55 PM 3.2 °F -4.2 °F -5.8 °F 66% 29.90 in 10.0 mi NW 3.5 mph - N/A   Mostly Cloudy
6:15 PM 1.4 °F -6.2 °F -7.6 °F 66% 29.92 in 10.0 mi NW 3.5 mph - N/A   Scattered Clouds
6:34 PM 1.4 °F -8.3 °F -7.6 °F 66% 29.93 in 10.0 mi WNW 4.6 mph - N/A   Clear
6:55 PM -0.4 °F -10.4 °F -7.6 °F 72% 29.95 in 10.0 mi NW 4.6 mph - N/A   Clear
7:15 PM -0.4 °F -8.3 °F -7.6 °F 72% 29.96 in 10.0 mi NW 3.5 mph - N/A   Clear
7:34 PM -2.2 °F -10.4 °F -9.4 °F 71% 29.97 in 10.0 mi WNW 3.5 mph - N/A   Clear
7:55 PM -4.0 °F -12.4 °F -9.4 °F 78% 29.97 in 10.0 mi WNW 3.5 mph - N/A   Clear
8:15 PM -5.8 °F -14.5 °F -11.2 °F 77% 29.98 in 10.0 mi WNW 3.5 mph - N/A   Clear
8:34 PM -4.0 °F -14.6 °F -9.4 °F 78% 29.98 in 10.0 mi NW 4.6 mph - N/A   Clear
8:54 PM -5.8 °F -14.5 °F -11.2 °F 77% 29.99 in 10.0 mi NW 3.5 mph - N/A   Clear
9:15 PM -7.6 °F -18.8 °F -11.2 °F 84% 30.00 in 10.0 mi WNW 4.6 mph - N/A   Clear
9:35 PM -7.6 °F -18.8 °F -11.2 °F 84% 30.01 in 10.0 mi WNW 4.6 mph - N/A   Clear
9:54 PM -7.6 °F -16.5 °F -11.2 °F 84% 30.02 in 10.0 mi WNW 3.5 mph - N/A   Clear
10:15 PM -9.4 °F - -14.8 °F 77% 30.03 in 10.0 mi Calm Calm - N/A   Clear
10:34 PM -11.2 °F -20.6 °F -14.8 °F 84% 30.04 in 10.0 mi West 3.5 mph - N/A   Clear
10:55 PM -11.2 °F -23.0 °F -14.8 °F 84% 30.06 in 10.0 mi West 4.6 mph - N/A   Clear
11:15 PM -11.2 °F -23.0 °F -14.8 °F 84% 30.07 in 10.0 mi West 4.6 mph - N/A   Clear
11:35 PM -11.2 °F -20.6 °F -16.6 °F 77% 30.08 in 10.0 mi West 3.5 mph - N/A   Clear
11:55 PM -11.2 °F -20.6 °F -16.6 °F 77% 30.08 in 10.0 mi West 3.5 mph - N/A   Clear